QPF
0.10 0.09 0.12 0.12 0.08 0.06 0.05 0.04 0.05 0.04 0.04 0.04 0.04 0.05 0.05 0.05 0.06 0.07 0.08 0.08 0.08 0.06 0.05 0.04 0.04 0.03 0.02 0.03 0.04 0.03 0.02 0.02 0.03 0.01 0.00 0.00 0.00 0.00 0.00 0.00 0.01 0.01 0.01
0.10 0.07 0.08 0.10 0.09 0.06 0.05 0.04 0.04 0.04 0.03 0.03 0.03 0.04 0.05 0.06 0.06 0.07 0.08 0.06 0.06 0.06 0.05 0.05 0.05 0.05 0.04 0.04 0.05 0.04 0.03 0.03 0.03 0.03 0.01 0.01 0.00 0.00 0.00 0.01 0.01 0.01 0.01
0.10 0.07 0.06 0.08 0.08 0.05 0.04 0.04 0.03 0.03 0.03 0.03 0.03 0.04 0.04 0.05 0.05 0.06 0.08 0.07 0.06 0.05 0.04 0.05 0.05 0.05 0.05 0.05 0.05 0.05 0.05 0.04 0.03 0.03 0.02 0.01 0.01 0.01 0.01 0.01 0.02 0.02 0.02
0.10 0.09 0.06 0.05 0.06 0.05 0.04 0.03 0.03 0.02 0.02 0.02 0.02 0.03 0.04 0.05 0.05 0.04 0.08 0.08 0.06 0.04 0.04 0.04 0.05 0.05 0.05 0.05 0.05 0.05 0.05 0.04 0.03 0.04 0.04 0.02 0.01 0.01 0.02 0.03 0.03 0.03 0.03
0.11 0.10 0.07 0.05 0.04 0.04 0.04 0.03 0.03 0.03 0.02 0.02 0.02 0.03 0.04 0.05 0.05 0.05 0.06 0.09 0.07 0.05 0.04 0.04 0.04 0.05 0.05 0.05 0.05 0.04 0.04 0.04 0.05 0.06 0.06 0.05 0.03 0.02 0.03 0.04 0.04 0.04 0.04
0.11 0.10 0.08 0.06 0.04 0.04 0.03 0.03 0.03 0.03 0.03 0.02 0.02 0.02 0.03 0.04 0.05 0.06 0.06 0.07 0.07 0.06 0.06 0.05 0.04 0.05 0.04 0.04 0.05 0.04 0.04 0.04 0.05 0.06 0.07 0.07 0.04 0.02 0.03 0.04 0.05 0.06 0.06
0.09 0.09 0.08 0.07 0.05 0.04 0.03 0.03 0.03 0.03 0.03 0.03 0.02 0.02 0.03 0.04 0.05 0.06 0.06 0.07 0.07 0.05 0.05 0.06 0.05 0.04 0.04 0.04 0.05 0.05 0.04 0.04 0.04 0.06 0.07 0.06 0.06 0.05 0.05 0.05 0.06 0.06 0.07
0.07 0.08 0.07 0.06 0.05 0.04 0.03 0.02 0.02 0.03 0.03 0.02 0.03 0.02 0.02 0.03 0.05 0.06 0.06 0.05 0.06 0.05 0.05 0.04 0.05 0.04 0.04 0.04 0.06 0.06 0.05 0.04 0.04 0.05 0.07 0.07 0.08 0.08 0.07 0.07 0.07 0.09 0.10
0.05 0.05 0.05 0.05 0.05 0.04 0.03 0.03 0.03 0.03 0.03 0.03 0.03 0.03 0.03 0.03 0.04 0.05 0.05 0.05 0.05 0.05 0.05 0.04 0.04 0.04 0.04 0.04 0.04 0.04 0.04 0.04 0.04 0.04 0.06 0.07 0.08 0.09 0.08 0.07 0.08 0.09 0.09
0.05 0.04 0.04 0.04 0.04 0.03 0.04 0.03 0.03 0.03 0.04 0.04 0.04 0.04 0.04 0.04 0.04 0.05 0.04 0.04 0.04 0.04 0.04 0.04 0.05 0.04 0.04 0.04 0.03 0.03 0.03 0.03 0.03 0.04 0.05 0.05 0.07 0.08 0.08 0.07 0.07 0.08 0.08
0.06 0.05 0.05 0.04 0.03 0.03 0.03 0.03 0.03 0.02 0.03 0.03 0.04 0.04 0.04 0.04 0.04 0.05 0.05 0.04 0.04 0.03 0.04 0.04 0.04 0.04 0.04 0.03 0.03 0.02 0.03 0.03 0.04 0.04 0.05 0.05 0.06 0.06 0.06 0.06 0.08 0.09 0.09
0.05 0.05 0.06 0.05 0.04 0.03 0.02 0.02 0.02 0.02 0.02 0.02 0.03 0.04 0.05 0.05 0.04 0.04 0.05 0.04 0.04 0.04 0.04 0.04 0.03 0.03 0.03 0.03 0.02 0.02 0.03 0.04 0.04 0.04 0.04 0.05 0.06 0.06 0.05 0.05 0.07 0.08 0.08
0.05 0.05 0.06 0.06 0.05 0.04 0.03 0.02 0.01 0.02 0.02 0.02 0.02 0.03 0.04 0.05 0.05 0.04 0.04 0.04 0.03 0.03 0.03 0.04 0.04 0.03 0.02 0.02 0.02 0.03 0.03 0.03 0.03 0.04 0.05 0.06 0.06 0.06 0.05 0.06 0.07 0.08 0.09
0.05 0.05 0.06 0.07 0.08 0.06 0.04 0.03 0.02 0.02 0.02 0.02 0.02 0.02 0.02 0.03 0.03 0.03 0.03 0.03 0.03 0.03 0.03 0.04 0.04 0.03 0.03 0.03 0.02 0.02 0.02 0.03 0.04 0.04 0.06 0.06 0.06 0.05 0.05 0.05 0.06 0.06 0.07
0.06 0.06 0.06 0.05 0.06 0.07 0.06 0.04 0.03 0.02 0.02 0.02 0.02 0.02 0.02 0.02 0.02 0.03 0.02 0.02 0.02 0.02 0.02 0.02 0.03 0.03 0.03 0.02 0.02 0.03 0.03 0.03 0.04 0.05 0.05 0.06 0.06 0.05 0.05 0.05 0.05 0.06 0.06
0.06 0.06 0.05 0.04 0.05 0.05 0.05 0.05 0.05 0.05 0.04 0.03 0.03 0.03 0.03 0.03 0.03 0.03 0.03 0.03 0.02 0.02 0.01 0.01 0.02 0.02 0.02 0.03 0.03 0.03 0.03 0.04 0.05 0.05 0.06 0.06 0.06 0.06 0.05 0.04 0.04 0.05 0.05
0.07 0.06 0.05 0.04 0.04 0.04 0.04 0.03 0.04 0.04 0.04 0.04 0.04 0.04 0.04 0.05 0.04 0.04 0.03 0.03 0.03 0.02 0.02 0.02 0.02 0.02 0.02 0.03 0.03 0.03 0.04 0.04 0.05 0.05 0.05 0.05 0.05 0.04 0.03 0.03 0.03 0.04 0.05
0.06 0.05 0.05 0.04 0.03 0.03 0.03 0.02 0.02 0.03 0.03 0.04 0.04 0.05 0.05 0.05 0.05 0.05 0.04 0.03 0.03 0.03 0.02 0.02 0.02 0.02 0.02 0.03 0.03 0.03 0.04 0.04 0.04 0.04 0.04 0.04 0.04 0.02 0.02 0.02 0.03 0.03 0.04
0.05 0.05 0.05 0.04 0.03 0.03 0.02 0.02 0.02 0.02 0.02 0.03 0.04 0.05 0.06 0.06 0.05 0.04 0.03 0.02 0.02 0.02 0.02 0.02 0.02 0.02 0.03 0.03 0.03 0.03 0.03 0.03 0.04 0.04 0.04 0.03 0.02 0.02 0.02 0.02 0.03 0.03 0.03
0.05 0.05 0.05 0.04 0.04 0.03 0.02 0.02 0.02 0.02 0.02 0.02 0.03 0.04 0.05 0.05 0.04 0.04 0.03 0.03 0.03 0.03 0.03 0.03 0.03 0.02 0.03 0.03 0.03 0.03 0.03 0.03 0.03 0.03 0.03 0.03 0.02 0.02 0.02 0.02 0.02 0.02 0.02
0.05 0.06 0.05 0.05 0.04 0.03 0.03 0.02 0.02 0.02 0.03 0.03 0.03 0.03 0.03 0.03 0.03 0.03 0.03 0.04 0.04 0.03 0.03 0.03 0.03 0.03 0.03 0.03 0.03 0.02 0.02 0.02 0.03 0.03 0.03 0.02 0.02 0.02 0.02 0.02 0.02 0.02 0.02
0.04 0.05 0.05 0.04 0.04 0.04 0.04 0.03 0.03 0.02 0.03 0.04 0.04 0.04 0.04 0.04 0.04 0.04 0.04 0.04 0.04 0.03 0.03 0.03 0.03 0.03 0.02 0.02 0.02 0.02 0.02 0.02 0.02 0.02 0.02 0.02 0.01 0.02 0.02 0.01 0.01 0.01 0.01
0.04 0.04 0.04 0.04 0.04 0.04 0.04 0.04 0.03 0.03 0.03 0.04 0.04 0.04 0.05 0.05 0.05 0.05 0.05 0.04 0.04 0.03 0.03 0.03 0.02 0.02 0.02 0.02 0.02 0.02 0.02 0.02 0.02 0.02 0.02 0.01 0.01 0.01 0.01 0.01 0.01 0.01 0.01
0.04 0.04 0.04 0.04 0.04 0.04 0.04 0.04 0.03 0.03 0.03 0.04 0.04 0.04 0.04 0.05 0.05 0.05 0.05 0.04 0.04 0.03 0.03 0.02 0.02 0.02 0.02 0.02 0.02 0.02 0.02 0.02 0.02 0.02 0.01 0.01 0.01 0.01 0.01 0.01 0.01 0.01 0.01
0.03 0.04 0.04 0.04 0.04 0.04 0.03 0.03 0.03 0.03 0.04 0.04 0.04 0.04 0.05 0.05 0.05 0.05 0.04 0.04 0.03 0.03 0.03 0.02 0.03 0.02 0.02 0.02 0.02 0.02 0.02 0.02 0.02 0.01 0.01 0.01 0.01 0.01 0.01 0.01 0.01 0.01 0.01
0.02 0.03 0.04 0.04 0.04 0.04 0.03 0.03 0.03 0.03 0.03 0.04 0.04 0.04 0.05 0.05 0.04 0.04 0.04 0.03 0.03 0.03 0.02 0.02 0.02 0.02 0.02 0.02 0.02 0.02 0.02 0.02 0.02 0.01 0.01 0.01 0.01 0.01 0.01 0.01 0.01 0.01 0.01
MSLP
1000.81 1001.04 1001.26 1001.41 1001.47 1001.41 1001.26 1001.03 1000.75 1000.46 1000.14 999.80 999.39 998.88 998.22 997.40 996.44 995.39 994.34 993.40 992.72 992.39 992.52 993.14 994.26 995.80 997.67 999.75 1001.89 1003.97 1005.92 1007.67 1009.20 1010.55 1011.73 1012.80 1013.80 1014.75 1015.66 1016.53 1017.32 1018.04 1018.62
1000.71 1000.84 1000.97 1001.03 1001.01 1000.90 1000.69 1000.43 1000.13 999.80 999.45 999.06 998.59 997.99 997.26 996.36 995.34 994.25 993.19 992.28 991.65 991.41 991.65 992.40 993.65 995.31 997.29 999.46 1001.67 1003.81 1005.79 1007.56 1009.10 1010.45 1011.65 1012.74 1013.77 1014.78 1015.76 1016.70 1017.59 1018.38 1019.04
1000.71 1000.73 1000.74 1000.69 1000.58 1000.39 1000.13 999.83 999.50 999.16 998.79 998.37 997.86 997.22 996.44 995.51 994.47 993.38 992.35 991.50 990.96 990.82 991.17 992.03 993.37 995.11 997.15 999.35 1001.57 1003.70 1005.65 1007.39 1008.91 1010.24 1011.43 1012.54 1013.61 1014.66 1015.72 1016.76 1017.74 1018.63 1019.39
1000.76 1000.64 1000.52 1000.35 1000.13 999.86 999.56 999.23 998.89 998.55 998.18 997.75 997.23 996.59 995.80 994.88 993.86 992.82 991.85 991.09 990.64 990.61 991.06 992.00 993.39 995.16 997.19 999.36 1001.53 1003.59 1005.47 1007.13 1008.60 1009.88 1011.06 1012.17 1013.27 1014.39 1015.53 1016.67 1017.76 1018.77 1019.64
1000.74 1000.50 1000.24 999.95 999.64 999.31 998.97 998.64 998.32 997.99 997.63 997.23 996.72 996.10 995.34 994.45 993.49 992.52 991.65 990.99 990.65 990.72 991.24 992.23 993.64 995.39 997.36 999.44 1001.50 1003.44 1005.20 1006.77 1008.15 1009.38 1010.53 1011.65 1012.79 1013.97 1015.20 1016.45 1017.66 1018.79 1019.78
1000.60 1000.23 999.85 999.47 999.10 998.73 998.39 998.08 997.78 997.49 997.17 996.80 996.32 995.73 995.01 994.17 993.28 992.41 991.64 991.10 990.87 991.04 991.63 992.64 994.03 995.72 997.60 999.55 1001.46 1003.26 1004.89 1006.34 1007.63 1008.81 1009.93 1011.06 1012.24 1013.49 1014.80 1016.14 1017.47 1018.71 1019.80
1000.27 999.80 999.35 998.91 998.51 998.15 997.84 997.56 997.31 997.07 996.79 996.45 996.00 995.44 994.75 993.97 993.16 992.38 991.73 991.30 991.19 991.45 992.09 993.13 994.49 996.10 997.87 999.68 1001.44 1003.08 1004.58 1005.91 1007.12 1008.25 1009.36 1010.51 1011.72 1013.03 1014.41 1015.83 1017.24 1018.56 1019.74
999.75 999.23 998.74 998.29 997.90 997.58 997.32 997.10 996.91 996.71 996.47 996.15 995.71 995.16 994.50 993.77 993.03 992.34 991.80 991.50 991.50 991.85 992.57 993.62 994.96 996.50 998.16 999.84 1001.46 1002.97 1004.35 1005.60 1006.75 1007.85 1008.95 1010.11 1011.36 1012.71 1014.13 1015.60 1017.05 1018.41 1019.63
999.08 998.54 998.05 997.63 997.29 997.04 996.84 996.70 996.56 996.40 996.17 995.85 995.40 994.85 994.20 993.51 992.82 992.23 991.80 991.62 991.75 992.21 992.99 994.08 995.41 996.91 998.49 1000.07 1001.59 1003.00 1004.29 1005.48 1006.59 1007.68 1008.80 1009.97 1011.25 1012.61 1014.04 1015.51 1016.95 1018.31 1019.52
998.32 997.78 997.32 996.96 996.69 996.51 996.40 996.31 996.22 996.08 995.85 995.51 995.04 994.47 993.82 993.16 992.53 992.03 991.72 991.67 991.93 992.50 993.38 994.52 995.87 997.35 998.88 1000.40 1001.84 1003.19 1004.44 1005.60 1006.71 1007.80 1008.93 1010.13 1011.41 1012.76 1014.18 1015.60 1016.99 1018.29 1019.45
997.50 996.99 996.58 996.28 996.08 995.98 995.93 995.90 995.84 995.70 995.46 995.09 994.60 994.01 993.37 992.74 992.18 991.78 991.60 991.69 992.08 992.78 993.76 994.97 996.36 997.84 999.36 1000.84 1002.26 1003.58 1004.81 1005.97 1007.08 1008.20 1009.35 1010.56 1011.83 1013.15 1014.51 1015.86 1017.16 1018.37 1019.43
996.67 996.18 995.81 995.56 995.43 995.39 995.40 995.40 995.36 995.22 994.97 994.59 994.08 993.50 992.88 992.31 991.84 991.55 991.51 991.74 992.28 993.11 994.20 995.48 996.91 998.41 999.93 1001.40 1002.80 1004.11 1005.35 1006.52 1007.66 1008.80 1009.97 1011.18 1012.43 1013.71 1015.00 1016.25 1017.44 1018.52 1019.48
995.83 995.35 995.00 994.79 994.70 994.70 994.74 994.77 994.74 994.62 994.37 994.00 993.51 992.97 992.42 991.93 991.58 991.43 991.53 991.92 992.60 993.55 994.72 996.08 997.55 999.06 1000.57 1002.04 1003.43 1004.74 1005.98 1007.17 1008.34 1009.50 1010.68 1011.89 1013.11 1014.34 1015.55 1016.70 1017.78 1018.74 1019.58
994.98 994.48 994.13 993.92 993.85 993.87 993.93 993.99 993.98 993.88 993.67 993.35 992.93 992.47 992.03 991.68 991.47 991.48 991.73 992.27 993.08 994.12 995.38 996.77 998.25 999.76 1001.25 1002.69 1004.07 1005.37 1006.61 1007.82 1009.00 1010.18 1011.37 1012.57 1013.77 1014.95 1016.08 1017.14 1018.12 1018.98 1019.72
994.10 993.56 993.19 992.97 992.90 992.92 993.00 993.07 993.11 993.07 992.93 992.70 992.40 992.08 991.80 991.61 991.58 991.75 992.16 992.83 993.74 994.85 996.14 997.54 999.00 1000.47 1001.92 1003.32 1004.65 1005.93 1007.17 1008.37 1009.56 1010.75 1011.95 1013.13 1014.31 1015.44 1016.52 1017.51 1018.41 1019.20 1019.87
993.22 992.63 992.22 991.97 991.88 991.90 991.99 992.11 992.20 992.25 992.22 992.13 992.00 991.86 991.77 991.77 991.93 992.27 992.82 993.59 994.56 995.71 996.99 998.35 999.75 1001.16 1002.54 1003.87 1005.15 1006.38 1007.59 1008.78 1009.97 1011.16 1012.34 1013.52 1014.68 1015.78 1016.82 1017.77 1018.62 1019.36 1020.00
992.38 991.74 991.29 991.01 990.90 990.92 991.04 991.21 991.38 991.54 991.65 991.73 991.79 991.85 991.97 992.17 992.50 992.99 993.65 994.49 995.50 996.64 997.87 999.16 1000.48 1001.79 1003.08 1004.33 1005.54 1006.72 1007.89 1009.05 1010.23 1011.40 1012.58 1013.74 1014.88 1015.96 1016.98 1017.90 1018.73 1019.46 1020.09
991.65 990.97 990.49 990.20 990.08 990.12 990.27 990.50 990.77 991.05 991.32 991.57 991.83 992.09 992.40 992.79 993.27 993.88 994.62 995.50 996.50 997.59 998.76 999.96 1001.17 1002.38 1003.56 1004.72 1005.86 1006.98 1008.11 1009.24 1010.38 1011.53 1012.69 1013.84 1014.95 1016.01 1017.01 1017.93 1018.75 1019.48 1020.13
991.11 990.43 989.94 989.65 989.55 989.61 989.81 990.11 990.48 990.88 991.29 991.71 992.14 992.58 993.06 993.59 994.20 994.89 995.68 996.56 997.52 998.55 999.63 1000.72 1001.83 1002.93 1004.02 1005.10 1006.16 1007.23 1008.31 1009.40 1010.51 1011.63 1012.75 1013.86 1014.95 1015.99 1016.96 1017.87 1018.70 1019.44 1020.11
990.85 990.20 989.73 989.47 989.40 989.50 989.75 990.12 990.57 991.08 991.62 992.17 992.74 993.32 993.92 994.55 995.23 995.97 996.76 997.62 998.53 999.49 1000.48 1001.48 1002.49 1003.50 1004.51 1005.52 1006.52 1007.54 1008.57 1009.62 1010.68 1011.75 1012.83 1013.89 1014.93 1015.93 1016.88 1017.78 1018.60 1019.36 1020.05
990.93 990.33 989.92 989.70 989.68 989.83 990.13 990.56 991.07 991.66 992.28 992.92 993.58 994.25 994.92 995.62 996.33 997.08 997.86 998.68 999.53 1000.42 1001.33 1002.25 1003.19 1004.13 1005.08 1006.03 1006.99 1007.96 1008.94 1009.94 1010.94 1011.96 1012.97 1013.97 1014.96 1015.91 1016.82 1017.69 1018.50 1019.27 1019.98
991.36 990.84 990.50 990.35 990.38 990.58 990.92 991.38 991.94 992.56 993.23 993.92 994.62 995.33 996.04 996.75 997.46 998.20 998.95 999.72 1000.52 1001.35 1002.19 1003.06 1003.94 1004.84 1005.74 1006.66 1007.58 1008.51 1009.44 1010.39 1011.33 1012.28 1013.21 1014.14 1015.06 1015.95 1016.81 1017.65 1018.45 1019.21 1019.93
992.12 991.70 991.44 991.36 991.43 991.67 992.03 992.51 993.08 993.71 994.38 995.08 995.79 996.49 997.19 997.89 998.59 999.29 1000.01 1000.75 1001.50 1002.28 1003.09 1003.92 1004.77 1005.64 1006.52 1007.41 1008.30 1009.19 1010.07 1010.96 1011.83 1012.70 1013.56 1014.41 1015.25 1016.08 1016.90 1017.70 1018.48 1019.24 1019.97
993.16 992.82 992.64 992.62 992.73 992.99 993.36 993.83 994.38 994.99 995.64 996.31 996.99 997.67 998.35 999.02 999.69 1000.37 1001.05 1001.76 1002.49 1003.24 1004.03 1004.84 1005.67 1006.52 1007.38 1008.25 1009.11 1009.95 1010.79 1011.61 1012.42 1013.21 1013.99 1014.76 1015.54 1016.31 1017.08 1017.86 1018.62 1019.38 1020.11
994.37 994.12 994.01 994.02 994.16 994.41 994.77 995.22 995.73 996.31 996.91 997.55 998.19 998.83 999.47 1000.11 1000.76 1001.41 1002.07 1002.76 1003.47 1004.21 1004.99 1005.79 1006.61 1007.45 1008.30 1009.13 1009.96 1010.77 1011.55 1012.31 1013.05 1013.77 1014.48 1015.20 1015.91 1016.64 1017.38 1018.14 1018.90 1019.65 1020.39
995.71 995.52 995.44 995.48 995.62 995.86 996.20 996.60 997.08 997.60 998.16 998.74 999.34 999.95 1000.55 1001.17 1001.79 1002.42 1003.07 1003.75 1004.45 1005.19 1005.96 1006.76 1007.58 1008.40 1009.23 1010.04 1010.83 1011.59 1012.32 1013.02 1013.71 1014.37 1015.03 1015.69 1016.37 1017.07 1017.79 1018.53 1019.29 1020.04 1020.79
Thickness
5538 5540 5541 5542 5543 5544 5545 5547 5548 5547 5547 5546 5546 5546 5545 5544 5543 5542 5541 5540 5539 5537 5536 5534 5531 5529 5526 5524 5520 5518 5516 5513 5510 5510 5507 5505 5502 5499 5496 5493 5491 5489 5487
5531 5533 5534 5535 5535 5536 5538 5538 5538 5538 5538 5537 5537 5537 5536 5535 5534 5533 5532 5531 5531 5529 5527 5524 5522 5520 5516 5513 5510 5508 5506 5504 5500 5499 5497 5494 5491 5489 5486 5484 5482 5479 5478
5524 5525 5525 5526 5526 5528 5529 5529 5529 5529 5529 5528 5528 5528 5527 5525 5524 5523 5523 5522 5521 5519 5517 5515 5513 5510 5507 5504 5501 5498 5496 5494 5491 5487 5486 5483 5481 5478 5475 5474 5472 5470 5469
5514 5515 5516 5517 5519 5520 5520 5520 5520 5520 5519 5518 5518 5518 5517 5516 5515 5514 5514 5513 5511 5509 5507 5506 5504 5501 5498 5494 5491 5488 5486 5483 5479 5476 5474 5473 5471 5468 5464 5463 5462 5460 5459
5505 5506 5507 5508 5510 5510 5510 5511 5510 5510 5509 5509 5509 5508 5507 5506 5506 5505 5505 5503 5502 5499 5497 5496 5494 5492 5490 5486 5483 5479 5476 5473 5469 5466 5464 5463 5461 5457 5454 5453 5451 5450 5449
5495 5497 5497 5499 5500 5501 5501 5501 5500 5500 5499 5499 5498 5498 5497 5498 5498 5497 5496 5494 5492 5490 5488 5486 5484 5481 5479 5476 5474 5471 5468 5464 5461 5458 5455 5453 5452 5449 5446 5443 5440 5439 5439
5486 5487 5489 5490 5490 5490 5490 5491 5491 5491 5490 5489 5488 5488 5488 5488 5489 5488 5486 5484 5482 5480 5479 5477 5475 5472 5469 5466 5465 5462 5458 5456 5454 5450 5446 5444 5442 5441 5437 5434 5431 5428 5427
5476 5478 5479 5479 5480 5481 5481 5481 5482 5482 5481 5479 5479 5479 5478 5478 5479 5478 5477 5475 5473 5472 5470 5468 5466 5463 5460 5458 5455 5451 5449 5446 5444 5441 5439 5437 5435 5432 5429 5426 5423 5420 5418
5466 5467 5468 5469 5471 5471 5472 5472 5472 5472 5471 5469 5469 5468 5467 5467 5468 5468 5467 5465 5464 5462 5461 5459 5457 5454 5453 5450 5446 5443 5441 5438 5436 5434 5432 5429 5427 5425 5422 5418 5414 5411 5409
5456 5457 5458 5459 5461 5463 5463 5463 5462 5462 5461 5460 5459 5458 5458 5457 5458 5458 5457 5456 5454 5453 5451 5450 5448 5446 5444 5442 5438 5435 5433 5430 5428 5426 5423 5421 5419 5416 5413 5410 5406 5402 5399
5447 5448 5449 5450 5451 5452 5453 5452 5452 5451 5450 5449 5448 5448 5447 5448 5448 5448 5448 5446 5446 5444 5442 5440 5439 5438 5435 5433 5431 5428 5426 5423 5420 5417 5414 5412 5409 5406 5404 5401 5398 5395 5391
5437 5438 5439 5440 5441 5442 5441 5441 5441 5440 5440 5438 5437 5437 5437 5438 5438 5439 5438 5437 5437 5435 5433 5431 5430 5429 5426 5424 5422 5420 5418 5415 5411 5408 5405 5402 5400 5397 5395 5393 5390 5387 5385
5427 5428 5428 5429 5429 5431 5431 5430 5430 5430 5430 5429 5428 5428 5427 5428 5428 5429 5429 5428 5427 5425 5423 5422 5420 5418 5416 5414 5412 5410 5408 5405 5402 5399 5396 5394 5392 5390 5388 5386 5383 5380 5378
5418 5418 5419 5419 5420 5420 5420 5420 5420 5420 5420 5420 5419 5419 5418 5419 5419 5419 5418 5418 5417 5416 5414 5412 5410 5408 5406 5404 5402 5400 5397 5395 5393 5390 5388 5386 5385 5383 5381 5379 5376 5374 5371
5408 5409 5408 5409 5409 5409 5410 5410 5411 5411 5412 5412 5412 5412 5411 5411 5411 5412 5411 5409 5408 5407 5405 5401 5398 5396 5395 5393 5392 5390 5388 5386 5384 5383 5381 5379 5378 5377 5374 5372 5369 5367 5364
5398 5398 5398 5399 5399 5399 5399 5398 5398 5399 5400 5401 5403 5403 5403 5403 5403 5403 5402 5401 5399 5398 5395 5391 5388 5386 5384 5384 5383 5381 5380 5378 5377 5375 5374 5372 5371 5370 5368 5365 5363 5360 5357
5388 5389 5389 5390 5390 5389 5389 5388 5387 5388 5389 5390 5392 5393 5393 5394 5394 5393 5392 5390 5388 5387 5384 5381 5379 5377 5376 5375 5374 5373 5372 5371 5369 5368 5367 5365 5364 5362 5361 5359 5357 5354 5351
5379 5380 5380 5380 5379 5379 5378 5378 5378 5378 5378 5378 5379 5381 5383 5384 5383 5382 5381 5379 5376 5375 5374 5372 5370 5369 5368 5367 5366 5365 5364 5364 5363 5362 5360 5358 5356 5355 5354 5352 5350 5347 5346
5370 5369 5369 5369 5369 5368 5368 5367 5367 5367 5367 5367 5367 5369 5371 5372 5372 5371 5370 5368 5367 5365 5364 5364 5363 5362 5361 5360 5359 5358 5357 5357 5356 5354 5353 5351 5350 5349 5347 5346 5344 5342 5341
5360 5361 5361 5360 5359 5358 5358 5357 5357 5357 5357 5357 5357 5358 5359 5359 5359 5359 5359 5358 5357 5357 5356 5355 5355 5354 5354 5353 5352 5351 5350 5350 5349 5347 5346 5345 5344 5343 5341 5340 5338 5337 5335
5351 5351 5352 5351 5349 5348 5348 5348 5347 5347 5347 5347 5347 5349 5350 5349 5349 5349 5349 5349 5349 5349 5348 5348 5347 5347 5346 5346 5345 5344 5344 5343 5343 5341 5340 5339 5338 5337 5335 5334 5333 5331 5330
5342 5342 5342 5340 5339 5339 5339 5338 5338 5338 5338 5338 5338 5339 5341 5340 5340 5341 5341 5341 5341 5341 5340 5340 5340 5340 5340 5339 5339 5338 5338 5338 5337 5335 5334 5333 5332 5331 5329 5328 5327 5326 5325
5333 5333 5332 5331 5330 5330 5329 5328 5328 5329 5329 5329 5330 5331 5332 5332 5332 5332 5332 5332 5332 5333 5333 5333 5333 5333 5333 5333 5333 5333 5333 5333 5332 5331 5330 5329 5328 5326 5324 5323 5322 5321 5320
5325 5324 5323 5322 5321 5320 5320 5320 5320 5320 5321 5322 5323 5324 5324 5324 5325 5325 5325 5325 5325 5326 5326 5326 5326 5326 5327 5327 5327 5327 5328 5328 5327 5327 5326 5325 5323 5322 5320 5319 5318 5317 5317
5317 5316 5315 5314 5313 5313 5312 5312 5312 5313 5314 5315 5316 5317 5317 5318 5318 5318 5318 5318 5318 5319 5319 5319 5320 5320 5321 5321 5322 5322 5323 5323 5323 5322 5321 5320 5319 5318 5317 5315 5315 5314 5313
5310 5309 5308 5307 5307 5307 5306 5306 5306 5306 5307 5308 5309 5310 5310 5311 5311 5312 5312 5312 5312 5312 5312 5313 5314 5315 5316 5316 5317 5318 5318 5318 5318 5318 5317 5316 5315 5314 5313 5312 5311 5310 5309